Temperature
18 18 18 18 18 18 18 18 18 17 17 17 16 16 16 15 15 15 14 14 14 14 14 14 14 14 14 14 14 14 14 14 14 14 14 15 15 15 15 16 16 16 17
18 18 18 18 18 18 18 17 17 17 16 16 16 15 15 14 14 14 14 13 13 13 13 13 13 14 14 14 14 14 14 14 14 14 14 14 15 15 15 16 16 17 17
19 19 19 18 18 18 18 17 17 16 16 15 15 15 14 14 14 14 13 13 13 13 13 13 13 13 13 13 13 13 13 13 13 13 13 14 14 15 15 16 16 16 17
19 19 19 19 19 18 18 17 17 16 15 15 14 14 14 13 13 12 12 12 12 13 13 13 13 13 13 13 13 13 13 13 13 13 13 13 14 14 15 16 16 16 16
20 20 19 19 19 18 18 17 16 16 15 14 14 14 13 12 12 12 12 12 12 12 12 12 12 12 12 12 12 12 13 13 13 13 13 13 13 14 14 15 16 16 16
20 20 19 19 18 18 17 17 16 15 15 14 13 13 12 12 12 11 11 11 11 12 12 12 12 12 12 12 12 12 12 12 12 12 13 13 13 13 14 14 15 16 16
20 20 19 19 18 18 17 16 16 15 14 13 13 12 12 11 11 11 11 11 11 11 11 11 11 11 11 11 11 11 11 12 12 12 12 12 13 13 13 13 14 15 16
20 20 19 18 18 17 17 16 15 14 14 13 12 12 12 11 11 11 10 10 10 10 10 10 10 11 11 11 11 11 11 11 11 12 12 12 12 12 13 13 13 14 15
19 19 19 18 17 17 16 15 14 14 13 12 12 11 11 11 10 10 10 10 10 10 10 10 10 10 10 10 10 10 10 11 11 11 11 11 12 12 12 13 13 13 14
19 19 18 18 17 16 15 15 14 13 12 12 11 11 11 10 10 10 10 10 9 9 9 9 9 9 10 10 10 10 10 10 10 10 11 11 11 11 12 12 12 13 13
19 19 18 17 16 16 15 14 13 12 12 12 11 11 11 10 10 9 9 9 9 9 9 9 9 9 9 9 9 9 10 10 10 10 10 10 11 11 11 11 12 12 13
19 18 18 17 16 15 14 13 13 12 12 11 11 11 10 10 10 9 9 9 8 8 8 8 8 8 8 9 9 9 9 9 9 10 10 10 10 10 11 11 11 11 12
18 18 17 16 15 14 13 13 12 12 11 11 11 11 10 10 9 9 9 8 8 8 8 8 8 8 8 8 8 8 8 9 9 9 9 10 10 10 10 10 11 11 11
18 17 16 15 14 14 13 12 12 12 11 11 11 10 10 10 9 9 9 8 8 8 8 8 8 8 8 8 8 8 8 8 8 9 9 9 9 10 10 10 10 11 11
17 16 15 15 14 13 13 12 12 11 11 11 10 10 10 9 9 9 8 8 8 8 8 8 8 7 7 7 8 7 7 8 8 8 8 9 9 9 10 10 10 10 10
17 16 15 14 14 13 12 12 12 11 11 10 10 10 9 9 9 8 8 8 8 8 8 8 8 8 7 7 7 7 7 7 7 7 8 8 8 9 9 9 10 10 10
17 16 15 14 13 13 12 12 11 11 11 10 10 9 9 9 8 8 8 8 8 8 8 8 8 8 8 8 7 7 7 7 7 7 7 8 8 8 9 9 9 10 10
16 16 15 14 13 12 12 11 11 11 10 10 10 9 9 9 8 8 8 8 8 8 8 8 8 8 8 8 7 7 7 6 7 7 7 7 8 8 8 9 9 9 10
16 15 14 14 13 12 12 11 11 10 10 10 9 9 9 8 8 8 8 8 8 8 8 8 8 8 8 7 7 7 6 6 6 7 7 7 7 8 8 8 9 9 9
16 15 14 14 13 12 11 11 10 10 10 9 9 9 8 8 8 8 8 8 8 8 8 8 8 8 7 7 7 7 6 6 6 6 6 7 7 7 8 8 8 9 9
16 15 14 13 13 12 11 11 10 10 9 9 9 9 9 8 8 8 8 8 8 8 8 8 8 7 7 7 7 7 6 6 6 6 6 7 7 7 7 8 8 9 9
16 15 14 13 13 12 11 10 10 10 9 9 9 9 9 8 8 8 8 8 8 8 8 8 8 7 7 7 6 6 6 6 6 6 6 6 7 7 7 8 8 8 8
16 15 14 13 12 12 11 10 10 10 9 9 9 9 9 8 8 8 8 8 8 8 8 8 7 7 7 6 6 6 6 6 6 6 6 6 6 7 7 8 8 8 8
16 15 14 13 12 12 11 10 10 9 9 9 9 9 8 8 8 8 8 8 8 8 8 8 7 7 6 6 6 6 6 6 6 6 6 6 6 7 7 8 8 8 8
16 15 14 13 12 12 11 10 10 9 9 9 9 9 8 8 8 8 8 8 8 8 8 7 7 7 7 6 6 6 6 6 6 6 6 6 6 7 7 7 8 8 8
16 15 14 13 12 12 11 10 10 9 9 9 9 8 8 8 8 8 9 9 8 8 8 7 7 7 7 6 6 6 6 6 6 6 6 6 7 7 7 7 8 8 8
Wind_Speed
7 8 8 8 7 5 5 5 5 3 3 2 2 2 3 4 4 3 4 3 3 3 2 2 3 2 2 3 4 3 4 4 3 3 4 5 6 8 9 9 9 11 13
6 7 8 8 7 6 6 6 5 4 3 2 1 1 1 2 2 2 4 4 5 5 4 4 4 3 2 3 3 2 3 3 2 2 2 3 3 5 9 8 10 11 9
10 9 8 8 7 7 7 7 7 5 4 3 2 2 2 3 4 3 3 4 7 8 6 5 5 4 3 3 3 3 2 3 3 2 2 2 3 3 4 7 9 9 9
9 8 8 8 8 7 6 6 6 5 4 3 2 2 1 2 3 3 4 6 7 7 7 5 4 4 3 4 4 2 2 2 3 3 3 3 3 2 3 3 5 7 8
10 10 8 7 6 5 5 5 5 4 3 3 3 2 2 3 3 3 5 6 6 6 6 5 4 4 3 4 4 3 3 2 3 3 2 3 3 3 3 3 3 3 5
7 5 4 4 3 3 4 4 5 3 3 3 2 2 3 4 4 4 5 5 4 5 7 6 4 4 4 5 5 5 4 4 3 3 3 2 3 2 2 3 3 3 4
5 5 5 4 4 5 4 4 4 2 2 2 2 3 4 4 4 4 4 4 4 4 6 6 4 4 4 5 5 5 5 5 4 4 3 3 4 3 2 3 3 3 3
6 6 6 6 5 5 4 3 3 2 2 3 4 4 4 3 3 4 4 5 4 5 6 6 5 6 6 6 5 5 6 5 5 6 5 4 4 3 3 2 2 3 3
7 7 7 6 5 4 3 3 3 2 3 4 4 4 3 4 5 5 5 5 5 5 6 6 6 7 6 6 6 5 7 6 6 6 6 5 4 4 3 3 3 3 3
6 6 5 5 4 3 3 3 3 3 4 4 4 3 4 5 5 5 6 6 6 6 7 7 7 7 7 7 6 6 7 7 7 6 7 6 5 4 4 3 3 4 3
7 6 5 4 3 2 2 2 3 3 4 5 4 5 5 6 6 6 7 7 7 7 7 8 8 8 8 8 7 7 7 7 8 8 8 8 7 5 4 4 3 4 3
7 6 5 3 2 2 3 4 4 5 5 5 5 5 6 6 6 7 8 7 8 8 8 8 8 9 9 8 8 9 9 8 8 8 8 9 8 7 6 4 4 4 4
6 4 3 3 3 4 5 5 6 6 6 5 5 5 6 6 7 8 8 8 8 8 8 8 9 9 9 9 9 9 9 9 9 9 9 9 8 8 6 6 6 4 4
6 4 3 3 4 5 6 6 7 6 6 5 5 6 7 7 8 8 8 8 8 8 9 9 9 9 10 10 10 10 10 10 10 9 9 9 9 10 9 7 7 6 5
6 5 3 4 4 5 6 6 6 6 5 5 6 7 8 7 7 8 8 8 8 9 8 9 9 9 9 10 10 10 11 9 10 9 9 9 12 14 11 8 8 7 5
5 4 3 3 4 5 6 5 5 6 4 5 7 7 7 7 7 8 8 8 9 9 9 9 10 10 10 13 15 12 9 9 9 9 9 9 11 14 16 16 14 12 8
6 5 4 4 5 6 5 5 5 5 5 6 7 7 7 7 8 9 9 9 9 9 9 10 10 11 12 16 17 18 12 10 10 10 9 11 11 10 8 12 15 15 15
6 5 4 4 5 4 4 4 4 5 5 6 7 7 7 8 9 9 10 10 9 9 9 10 10 10 13 16 16 18 13 10 11 11 11 10 10 10 8 8 8 9 9
6 5 5 4 3 4 4 4 5 5 6 6 7 7 8 9 9 10 11 10 9 9 9 9 10 10 12 15 16 15 8 8 10 11 11 11 10 13 13 9 8 8 7
5 4 3 2 3 4 4 3 5 6 6 7 7 8 8 9 10 11 11 9 9 10 10 10 10 10 11 14 15 13 6 8 8 8 9 13 13 13 14 10 9 9 8
6 4 2 2 4 4 3 4 6 6 7 7 7 8 9 9 10 9 8 10 10 10 9 10 9 8 9 11 13 12 6 7 7 6 6 7 12 14 14 12 9 11 9
5 4 2 3 4 4 3 5 6 6 6 6 8 9 9 9 10 9 10 10 9 9 9 8 8 6 7 7 9 9 8 7 6 6 5 6 10 13 13 11 10 12 10
6 4 3 3 4 4 3 5 6 5 6 7 8 9 10 9 9 9 10 10 8 7 7 6 6 6 5 6 8 8 7 7 5 5 6 6 7 8 8 11 12 9 6
5 4 3 3 5 5 5 5 5 5 5 7 8 8 9 10 10 8 7 7 7 7 6 6 6 6 5 4 5 5 5 5 4 3 2 3 4 3 3 5 6 5 6
5 5 4 4 6 5 5 5 4 4 5 7 8 8 8 9 9 9 8 8 8 7 7 6 5 5 6 5 6 5 4 3 3 1 1 1 2 2 2 3 4 4 4
6 5 5 5 5 5 5 5 4 3 5 6 7 7 8 8 8 9 10 11 10 11 11 10 8 6 8 8 8 7 7 6 4 2 2 3 3 4 5 5 4 5 6
Wind_Direction
172 169 171 168 164 163 152 147 138 128 103 70 56 31 356 337 339 329 317 314 303 298 288 287 292 296 285 284 286 281 285 278 266 271 275 253 234 233 234 229 226 227 226
187 190 191 188 185 183 175 168 165 158 144 137 141 162 239 295 305 333 340 326 310 299 289 268 265 267 272 295 297 279 283 280 271 261 277 274 255 239 237 231 228 227 223
197 202 198 194 191 194 189 179 176 167 163 146 106 38 17 354 352 343 328 317 311 300 289 271 259 247 233 254 269 264 269 281 286 258 242 250 251 268 247 231 230 223 218
202 207 204 197 196 199 185 173 170 166 167 153 141 149 182 275 269 275 290 305 311 311 307 291 274 249 233 240 256 252 244 265 284 291 265 253 257 259 291 276 236 227 220
202 205 204 193 188 178 165 161 156 164 175 171 172 179 233 246 268 293 311 315 319 323 327 316 295 267 249 249 253 258 255 241 252 264 279 282 268 242 245 284 293 266 235
195 186 167 145 133 119 123 136 144 170 196 196 207 217 248 264 286 304 310 312 314 318 323 324 320 298 276 261 257 254 257 254 254 255 252 256 272 274 254 264 283 273 259
166 152 137 117 111 111 117 130 144 180 222 226 254 260 259 259 264 274 279 287 296 301 303 316 316 308 287 274 263 262 262 254 254 254 250 245 247 257 258 255 270 271 274
138 133 130 127 128 128 128 138 154 198 244 257 269 273 275 256 254 258 258 268 269 272 281 293 297 299 297 291 273 263 263 257 251 256 255 253 254 249 245 248 261 284 283
136 135 139 141 143 137 148 160 169 219 258 265 271 277 270 258 262 270 269 270 270 277 285 289 294 295 295 292 286 268 263 261 254 251 250 248 251 250 247 241 233 239 259
144 143 150 156 161 164 173 180 192 226 252 264 263 256 258 262 266 272 278 277 277 279 287 287 286 287 287 285 281 276 268 260 257 250 247 247 244 246 247 245 240 228 227
161 165 168 171 175 180 194 220 245 262 273 267 259 263 266 267 269 268 268 268 270 273 274 275 277 279 280 280 278 275 276 267 263 260 249 245 238 234 236 234 236 238 222
169 172 175 183 202 228 249 254 259 264 259 253 253 259 265 269 271 269 267 265 265 266 265 267 268 270 274 271 269 272 277 269 265 260 253 249 245 233 229 224 227 231 228
174 176 189 217 240 250 259 261 261 260 259 257 262 271 274 272 269 268 268 266 263 264 265 263 262 264 267 267 265 262 262 260 258 254 249 246 238 234 228 220 223 226 234
179 184 213 249 258 259 261 266 270 266 264 263 270 276 275 270 268 268 269 268 266 264 264 261 257 257 259 261 263 263 262 260 258 253 246 242 232 228 224 221 219 217 218
176 183 205 242 260 267 275 276 275 273 269 271 277 276 276 276 275 277 276 275 272 274 266 264 261 257 258 261 258 255 260 259 260 259 252 248 243 235 223 216 209 204 209
178 184 207 248 269 272 274 280 278 276 273 279 281 283 287 289 288 285 282 279 277 275 272 267 264 263 268 267 263 259 256 253 253 256 255 257 259 249 233 223 211 197 198
186 201 232 251 262 264 264 268 271 279 288 290 291 294 297 296 291 293 293 285 281 277 276 271 265 263 261 260 260 260 255 246 245 246 247 258 257 244 231 229 225 215 208
195 221 240 254 261 263 269 275 285 294 295 298 300 303 302 298 297 295 291 287 281 278 276 276 271 268 270 264 258 258 255 245 241 239 237 237 244 246 227 220 217 213 212
199 214 225 231 254 272 274 290 303 303 302 302 303 301 300 300 303 301 296 290 286 284 279 277 275 272 274 271 265 261 251 243 241 240 238 233 232 235 226 213 210 211 221
194 204 219 233 277 279 277 297 302 303 298 295 295 296 297 299 301 297 293 289 284 282 285 284 279 273 275 277 274 266 244 242 244 242 239 238 232 229 220 208 200 205 212
187 180 184 252 274 277 278 294 296 290 284 290 297 299 299 300 297 293 290 291 291 289 288 288 288 283 281 286 285 277 241 235 238 237 236 236 233 229 220 206 200 207 197
180 177 190 265 279 278 274 288 287 279 286 297 302 302 302 306 311 301 299 297 292 292 293 293 295 294 294 296 299 292 263 236 227 232 234 236 236 227 215 204 204 206 192
193 198 204 261 286 280 263 272 275 281 296 307 308 306 308 306 301 298 300 302 298 291 292 292 293 299 303 308 317 312 289 257 237 238 238 232 228 210 200 199 194 189 182
198 198 208 259 281 278 272 256 267 280 298 306 306 306 310 310 308 303 297 296 296 292 289 289 289 295 301 305 321 324 310 284 260 257 260 225 190 171 172 178 183 180 184
200 194 204 236 262 274 273 266 267 284 303 305 304 307 306 304 308 307 299 294 283 270 268 271 265 274 289 288 300 302 303 286 257 232 197 161 154 166 178 175 176 179 179
189 194 211 234 259 268 265 265 257 271 298 306 309 308 308 308 307 309 312 303 290 286 272 254 246 251 253 279 294 298 299 301 279 228 208 205 197 193 190 185 186 189 193
Height
1534 1534 1534 1534 1534 1533 1533 1532 1532 1531 1530 1529 1527 1525 1523 1521 1520 1518 1516 1515 1514 1512 1510 1508 1507 1505 1503 1501 1499 1497 1496 1494 1493 1491 1489 1487 1488 1489 1492 1495 1498 1501 1504
1532 1532 1532 1531 1531 1531 1531 1530 1529 1528 1527 1525 1524 1522 1520 1518 1516 1515 1513 1512 1510 1508 1507 1505 1503 1502 1500 1498 1497 1494 1493 1491 1490 1489 1487 1484 1484 1484 1486 1488 1490 1493 1497
1530 1530 1530 1529 1529 1529 1528 1528 1526 1525 1524 1523 1521 1519 1517 1515 1513 1511 1509 1507 1506 1504 1503 1501 1500 1498 1497 1496 1494 1492 1490 1489 1487 1486 1486 1483 1481 1481 1481 1482 1484 1487 1490
1528 1528 1528 1528 1528 1527 1527 1526 1524 1523 1522 1520 1518 1516 1513 1510 1508 1506 1504 1503 1501 1500 1498 1497 1496 1495 1494 1493 1491 1490 1488 1487 1485 1484 1483 1483 1481 1480 1479 1479 1480 1482 1484
1526 1526 1526 1527 1527 1526 1525 1524 1523 1521 1520 1518 1515 1513 1510 1507 1505 1503 1500 1499 1497 1496 1495 1493 1492 1491 1490 1489 1488 1487 1486 1484 1483 1482 1481 1479 1479 1479 1478 1477 1477 1478 1479
1524 1525 1526 1526 1525 1525 1524 1522 1521 1519 1517 1515 1513 1510 1507 1504 1502 1499 1497 1495 1494 1492 1491 1489 1488 1487 1486 1485 1484 1483 1482 1481 1480 1479 1478 1477 1477 1476 1476 1475 1474 1475 1476
1522 1523 1524 1524 1524 1523 1522 1520 1519 1517 1514 1512 1510 1507 1504 1501 1498 1496 1493 1491 1489 1487 1486 1485 1483 1482 1481 1481 1480 1479 1478 1477 1476 1475 1475 1474 1474 1474 1474 1473 1473 1473 1473
1521 1522 1522 1522 1522 1520 1519 1517 1515 1513 1511 1509 1506 1503 1501 1498 1495 1493 1490 1487 1485 1483 1481 1480 1479 1477 1476 1476 1475 1474 1473 1473 1472 1471 1471 1470 1470 1470 1470 1471 1471 1470 1471
1520 1520 1520 1520 1519 1518 1516 1514 1512 1510 1508 1505 1502 1500 1497 1495 1491 1488 1486 1483 1481 1478 1477 1475 1474 1472 1471 1470 1469 1468 1467 1467 1467 1467 1466 1466 1466 1466 1466 1467 1468 1469 1468
1519 1519 1518 1518 1516 1515 1513 1511 1509 1507 1504 1501 1499 1496 1494 1491 1487 1484 1481 1479 1477 1474 1472 1470 1468 1467 1465 1464 1463 1462 1461 1461 1461 1461 1461 1461 1461 1462 1462 1462 1463 1464 1466
1517 1517 1516 1515 1514 1512 1510 1508 1506 1503 1500 1498 1495 1492 1489 1486 1483 1480 1477 1475 1472 1470 1467 1465 1463 1461 1460 1458 1457 1456 1455 1454 1454 1455 1455 1456 1457 1457 1457 1458 1458 1459 1461
1515 1514 1513 1512 1511 1509 1507 1504 1502 1499 1496 1494 1491 1488 1485 1482 1478 1475 1472 1470 1467 1465 1462 1460 1457 1455 1454 1452 1451 1450 1449 1448 1447 1448 1449 1449 1451 1451 1452 1453 1454 1455 1456
1512 1512 1511 1509 1508 1505 1503 1500 1498 1495 1492 1490 1487 1484 1480 1477 1474 1471 1467 1465 1462 1459 1457 1454 1452 1449 1448 1446 1445 1443 1442 1441 1440 1441 1442 1443 1444 1445 1447 1448 1449 1450 1451
1510 1509 1508 1506 1504 1502 1499 1496 1494 1491 1488 1485 1482 1479 1475 1472 1468 1465 1462 1459 1456 1453 1450 1448 1445 1443 1441 1439 1438 1437 1435 1434 1433 1433 1434 1435 1437 1439 1441 1442 1444 1445 1446
1507 1506 1505 1503 1500 1498 1495 1493 1490 1487 1484 1481 1477 1474 1470 1466 1463 1459 1456 1453 1450 1447 1444 1441 1439 1437 1434 1432 1431 1429 1428 1427 1426 1426 1427 1428 1429 1431 1434 1436 1438 1440 1441
1505 1503 1501 1499 1497 1494 1491 1489 1486 1483 1480 1476 1473 1469 1465 1461 1457 1453 1450 1446 1443 1440 1438 1435 1432 1429 1427 1425 1424 1422 1421 1420 1419 1418 1419 1420 1422 1424 1427 1429 1432 1434 1436
1501 1500 1498 1495 1493 1490 1487 1484 1482 1479 1475 1472 1468 1464 1460 1455 1451 1448 1444 1440 1437 1434 1431 1428 1425 1422 1420 1418 1416 1414 1413 1411 1410 1410 1410 1412 1414 1416 1419 1422 1425 1427 1430
1497 1496 1494 1491 1489 1486 1484 1481 1478 1474 1471 1467 1463 1459 1454 1450 1446 1442 1438 1435 1431 1428 1425 1422 1418 1415 1412 1410 1407 1406 1404 1402 1402 1402 1402 1403 1405 1409 1412 1415 1418 1420 1423
1493 1492 1490 1488 1485 1482 1480 1477 1474 1470 1467 1463 1458 1454 1449 1444 1440 1436 1433 1429 1426 1423 1419 1416 1412 1408 1405 1403 1400 1397 1395 1394 1393 1393 1394 1395 1397 1400 1404 1407 1410 1414 1417
1490 1488 1486 1484 1481 1479 1476 1473 1469 1466 1462 1458 1454 1449 1445 1440 1435 1431 1428 1425 1421 1417 1414 1410 1406 1403 1399 1396 1393 1390 1387 1386 1385 1385 1386 1387 1389 1392 1396 1400 1403 1407 1410
1486 1485 1483 1480 1478 1475 1472 1469 1466 1462 1458 1454 1449 1445 1440 1436 1431 1428 1424 1420 1417 1413 1409 1405 1401 1397 1393 1389 1386 1383 1381 1379 1378 1379 1379 1381 1383 1386 1389 1393 1397 1401 1406
1483 1481 1479 1477 1474 1472 1468 1465 1461 1458 1454 1450 1445 1440 1436 1432 1428 1424 1420 1416 1412 1408 1404 1400 1395 1392 1388 1384 1380 1378 1376 1374 1374 1374 1375 1376 1378 1380 1384 1388 1392 1396 1400
1479 1478 1476 1473 1471 1468 1465 1461 1458 1454 1450 1446 1441 1436 1432 1428 1425 1420 1416 1412 1408 1404 1400 1396 1391 1387 1383 1380 1377 1374 1372 1371 1370 1371 1371 1372 1374 1376 1379 1383 1387 1392 1395
1475 1473 1472 1469 1467 1464 1461 1457 1454 1450 1446 1442 1437 1433 1429 1425 1421 1417 1413 1409 1405 1400 1396 1392 1388 1384 1380 1377 1374 1372 1370 1369 1369 1369 1370 1371 1372 1374 1376 1380 1383 1387 1391
1470 1469 1468 1465 1463 1460 1457 1454 1450 1446 1442 1438 1433 1429 1425 1422 1418 1414 1410 1406 1402 1398 1393 1389 1385 1381 1378 1375 1373 1371 1369 1369 1368 1369 1369 1369 1370 1372 1374 1378 1381 1384 1388
1466 1465 1463 1462 1459 1456 1453 1450 1447 1443 1438 1434 1430 1426 1422 1418 1415 1411 1407 1403 1399 1394 1390 1386 1383 1379 1376 1373 1371 1370 1369 1368 1368 1368 1368 1368 1369 1371 1373 1376 1378 1381 1385